sat.trackr.live / text

‹ back to catalog

STARLINK-31188

NORAD 58804 · 2024-012T

PAYLOAD ACTIVE UNKNOWN

§ Identity

Operator
Country
US
Launch date
2024-01-15
Launch site
AFETR
Launch vehicle
Mass (kg)
RCS (m²)

Purposes: comms

External: N2YO · Heavens-Above · Gunter

§ Orbital elements

Epoch: 2026-05-24T23:43:33.201408Z

Period
94.27 min
Inclination
43.0037°
Eccentricity
0.0001577
Mean motion
15.27577787 rev/d
Perigee alt
482.0 km
Apogee alt
484.1 km
Semi-major
6,861.2 km
B*
1.1388e-4
RAAN
94.4556°
Arg perigee
267.2349°
Mean anomaly
92.8323°
Rev number
13,290

§ Raw data

STARLINK-311881 58804U 24012T   26144.98857872  .00002873  00000+0  11388-3 0  99982 58804  43.0037  94.4556 0001577 267.2349  92.8323 15.27577787132908

JSON: /api/v1/satellites/58804 · /tle

For live sub-satellite position, see the globe view (requires WebGL).

§ Visibility from observer

Set your observer location to see the next 7 days of passes ≥ 10°. The values pass through the URL so the page stays shareable.

No JS? Fill the form by hand. The geolocation button needs JavaScript.